Weather History for Three Rivers, MI

Change the Weather History Date:

Saturday, June 23, 2012

  Actual Average Record
Temperature  
Mean Temperature 70 °F -  
Max Temperature 84 °F 80 °F 97 °F (1988)
Min Temperature 56 °F 55 °F 38 °F (1992)
Cooling Degree Days 5    
Growing Degree Days 20 (Base 50)    
Moisture  
Dew Point 53 °F    
Average Humidity 58    
Maximum Humidity 92    
Minimum Humidity 29    
Precipitation  
Precipitation 0.00 in - - ()
Sea Level Pressure  
Sea Level Pressure 30.04 in    
Wind  
Wind Speed 1 mph (NW)    
Max Wind Speed 8 mph    
Max Gust Speed -    
Visibility 10 miles    
Events      
Averages and records for this station are not official NWS values.
T = Trace of Precipitation, MM = Missing Value Source: NWS Daily Summary

Daily Weather History Graph

Daily Weather History Graph

Search for Another Location

Airport:

Trip Planner

Search our weather history database for the weather conditions in past years. The results will help you decide how hot, cold, wet, or windy it might be!

Date:

Astronomy

Jun. 23, 2012 Rise Set
Actual Time 6:07 AM EDT 9:21 PM EDT
Civil Twilight 5:33 AM EDT 9:56 PM EDT
Nautical Twilight 4:48 AM EDT 10:40 PM EDT
Astronomical Twilight 3:55 AM EDT 11:34 PM EDT
Moon 10:12 AM EDT (6/23) 11:45 PM EDT (6/23)
Length of Visible Light 16h 22m
Length of Day
15h 14m
Waxing Crescent, 16% of the Moon is Illuminated
Jun 23
Waxing Crescent
Jun 26
First Quarter
Jul 3
Full
Jul 10
Last Quarter
Jul 19
New

Hourly Weather History & Observations

Time (EDT) Temp. Heat Index Dew Point Humidity Pressure Visibility Wind Dir Wind Speed Gust Speed Precip Events Conditions
12:14 AM 62.4 °F - 54.1 °F 74% 30.01 in 10.0 mi Calm Calm - N/A   Scattered Clouds
12:33 AM 61.2 °F - 54.5 °F 79% 30.01 in 10.0 mi Calm Calm - N/A   Scattered Clouds
12:54 AM 61.9 °F - 54.3 °F 76% 30.01 in 10.0 mi Calm Calm - N/A   Scattered Clouds
1:13 AM 61.5 °F - 54.3 °F 77% 30.02 in 10.0 mi Calm Calm - N/A   Overcast
1:34 AM 62.1 °F - 55.9 °F 80% 30.01 in 10.0 mi Calm Calm - N/A   Overcast
1:54 AM 60.6 °F - 56.3 °F 86% 30.02 in 10.0 mi Calm Calm - N/A   Scattered Clouds
2:13 AM 61.9 °F - 56.3 °F 82% 30.02 in 10.0 mi Calm Calm - N/A   Scattered Clouds
2:34 AM 60.1 °F - 55.6 °F 85% 30.02 in 10.0 mi Calm Calm - N/A   Scattered Clouds
2:54 AM 59.9 °F - 55.8 °F 86% 30.02 in 10.0 mi Calm Calm - N/A   Scattered Clouds
3:13 AM 59.2 °F - 55.2 °F 87% 30.02 in 10.0 mi Calm Calm - N/A   Scattered Clouds
3:34 AM 59.0 °F - 55.6 °F 88% 30.03 in 10.0 mi Calm Calm - N/A   Mostly Cloudy
3:53 AM 59.4 °F - 56.3 °F 90% 30.02 in 10.0 mi Calm Calm - N/A   Mostly Cloudy
4:14 AM 58.1 °F - 54.5 °F 88% 30.03 in 10.0 mi Calm Calm - N/A   Clear
4:33 AM 58.1 °F - 54.9 °F 89% 30.03 in 10.0 mi Calm Calm - N/A   Scattered Clouds
4:53 AM 58.1 °F - 54.9 °F 89% 30.03 in 10.0 mi Calm Calm - N/A   Scattered Clouds
5:14 AM 57.7 °F - 55.0 °F 91% 30.03 in 10.0 mi Calm Calm - N/A   Scattered Clouds
5:33 AM 57.4 °F - 54.5 °F 90% 30.02 in 10.0 mi Calm Calm - N/A   Clear
5:54 AM 57.2 °F - 54.3 °F 90% 30.03 in 10.0 mi Calm Calm - N/A   Clear
6:13 AM 56.7 °F - 54.3 °F 92% 30.04 in 10.0 mi Calm Calm - N/A   Clear
6:34 AM 57.4 °F - 54.5 °F 90% 30.04 in 10.0 mi Calm Calm - N/A   Clear
6:54 AM 58.1 °F - 54.9 °F 89% 30.04 in 10.0 mi Calm Calm - N/A   Clear
7:13 AM 59.5 °F - 56.7 °F 90% 30.04 in 10.0 mi Calm Calm - N/A   Clear
7:34 AM 61.0 °F - 57.6 °F 88% 30.04 in 10.0 mi Calm Calm - N/A   Clear
7:54 AM 63.5 °F - 56.3 °F 77% 30.04 in 10.0 mi Calm Calm - N/A   Clear
8:13 AM 65.3 °F - 55.6 °F 71% 30.05 in 10.0 mi Calm Calm - N/A   Clear
8:34 AM 66.7 °F - 54.7 °F 65% 30.07 in 10.0 mi Calm Calm - N/A   Clear
8:54 AM 68.0 °F - 55.0 °F 63% 30.07 in 10.0 mi Calm Calm - N/A   Clear
9:13 AM 69.8 °F - 55.4 °F 60% 30.07 in 10.0 mi Calm Calm - N/A   Clear
9:34 AM 70.7 °F - 55.8 °F 59% 30.07 in 10.0 mi Calm Calm - N/A   Clear
9:54 AM 71.6 °F - 55.6 °F 57% 30.07 in 10.0 mi Calm Calm - N/A   Clear
10:14 AM 73.0 °F - 55.8 °F 55% 30.07 in 10.0 mi Calm Calm - N/A   Clear
10:34 AM 75.2 °F - 55.2 °F 50% 30.06 in 10.0 mi Calm Calm - N/A   Clear
10:53 AM 74.8 °F - 52.9 °F 46% 30.06 in 10.0 mi ESE 3.5 mph - N/A   Clear
11:14 AM 76.6 °F - 54.0 °F 45% 30.06 in 10.0 mi East 3.5 mph - N/A   Clear
11:34 AM 78.1 °F - 52.5 °F 41% 30.06 in 10.0 mi Calm Calm - N/A   Clear
11:53 AM 77.5 °F - 52.0 °F 41% 30.06 in 10.0 mi Calm Calm - N/A   Clear
12:14 PM 78.6 °F - 53.1 °F 41% 30.06 in 10.0 mi Calm Calm - N/A   Clear
12:34 PM 80.1 °F 79.9 °F 53.1 °F 39% 30.07 in 10.0 mi Calm Calm - N/A   Clear
12:53 PM 78.1 °F - 52.5 °F 41% 30.07 in 10.0 mi Calm Calm - N/A   Scattered Clouds
1:14 PM 79.7 °F - 52.3 °F 39% 30.06 in 10.0 mi SSE 3.5 mph - N/A   Scattered Clouds
1:34 PM 80.2 °F 80.0 °F 53.1 °F 39% 30.05 in 10.0 mi SSE 3.5 mph - N/A   Clear
1:54 PM 81.7 °F - 52.7 °F 37% 30.05 in 10.0 mi Calm Calm - N/A   Clear
2:14 PM 80.2 °F - 50.5 °F 35% 30.05 in 10.0 mi WNW 4.6 mph - N/A   Scattered Clouds
2:33 PM 83.5 °F - 48.9 °F 30% 30.05 in 10.0 mi WNW 3.5 mph - N/A   Clear
2:54 PM 81.3 °F - 48.0 °F 31% 30.05 in 10.0 mi ENE 4.6 mph - N/A   Scattered Clouds
3:14 PM 84.4 °F - 49.3 °F 29% 30.05 in 10.0 mi NW 6.9 mph - N/A   Scattered Clouds
3:33 PM 84.2 °F - 48.9 °F 29% 30.04 in 10.0 mi NW 4.6 mph - N/A   Scattered Clouds
3:54 PM 83.7 °F - 48.6 °F 29% 30.03 in 10.0 mi West 6.9 mph - N/A   Clear
4:14 PM 82.9 °F - 48.6 °F 30% 30.03 in 10.0 mi Calm Calm - N/A   Clear
4:33 PM 83.1 °F - 47.3 °F 29% 30.03 in 10.0 mi Calm Calm - N/A   Clear
4:54 PM 82.6 °F - 47.7 °F 29% 30.03 in 10.0 mi NW 3.5 mph - N/A   Clear
5:14 PM 82.4 °F - 47.5 °F 29% 30.03 in 10.0 mi Calm Calm - N/A   Clear
5:33 PM 81.7 °F - 49.6 °F 33% 30.03 in 10.0 mi West 4.6 mph - N/A   Clear
5:54 PM 81.5 °F - 50.0 °F 33% 30.02 in 10.0 mi West 3.5 mph - N/A   Clear
6:13 PM 81.5 °F - 48.7 °F 32% 30.01 in 10.0 mi Calm Calm - N/A   Clear
6:34 PM 80.8 °F - 50.4 °F 35% 30.01 in 10.0 mi Calm Calm - N/A   Clear
6:54 PM 82.4 °F - 50.2 °F 33% 30.01 in 10.0 mi Calm Calm - N/A   Clear
7:13 PM 82.4 °F - 48.9 °F 31% 30.01 in 10.0 mi Calm Calm - N/A   Clear
7:34 PM 81.3 °F - 50.9 °F 35% 30.02 in 10.0 mi NW 6.9 mph - N/A   Clear
7:54 PM 78.4 °F - 51.1 °F 38% 30.02 in 10.0 mi NW 5.8 mph - N/A   Clear
8:13 PM 77.4 °F - 51.8 °F 41% 30.03 in 10.0 mi NNW 8.1 mph - N/A   Clear
8:34 PM 76.3 °F - 52.7 °F 44% 30.03 in 10.0 mi NW 4.6 mph - N/A   Clear
8:54 PM 75.2 °F - 53.6 °F 47% 30.03 in 10.0 mi Calm Calm - N/A   Clear
9:13 PM 73.8 °F - 55.4 °F 53% 30.03 in 10.0 mi Calm Calm - N/A   Clear
9:34 PM 73.4 °F - 55.6 °F 54% 30.03 in 10.0 mi Calm Calm - N/A   Clear
9:53 PM 71.8 °F - 56.1 °F 58% 30.04 in 10.0 mi Calm Calm - N/A   Clear
10:14 PM 70.7 °F - 55.0 °F 58% 30.04 in 10.0 mi Calm Calm - N/A   Clear
10:34 PM 70.0 °F - 56.3 °F 62% 30.04 in 10.0 mi Calm Calm - N/A   Clear
10:53 PM 70.3 °F - 57.0 °F 63% 30.05 in 10.0 mi Calm Calm - N/A   Clear
11:14 PM 71.1 °F - 56.7 °F 60% 30.05 in 10.0 mi Calm Calm - N/A   Clear
11:34 PM 70.0 °F - 57.2 °F 64% 30.05 in 10.0 mi Calm Calm - N/A   Clear
11:53 PM 70.5 °F - 59.7 °F 69% 30.05 in 10.0 mi Calm Calm - N/A   Clear